Regional Weather Roundup
Issued by NWS

Home | Current Version | Previous Version | Graphics & Text | Print | Product List | Glossary On
Versions: 1 2 3 4 5 6 7 8 9 10 11 12 13 14 15 16 17 18 19 20 21 22 23 24 25 26 27 28 29 30 31 32 33 34 35 36 37 38 39 40 41 42 43 44 45 46 47 48 49 50
793
ASUS45 KCYS 251610
RWRWY

WYOMING REGIONAL WEATHER ROUNDUP
NATIONAL WEATHER SERVICE CHEYENNE WY
1000 AM MDT MON JUL 25 2016

NOTE:  "FAIR" INDICATES FEW OR NO CLOUDS BELOW 12,000 FEET
WITH NO SIGNIFICANT WEATHER AND/OR OBSTRUCTIONS TO VISIBILITY.

WYZ001-251700-
YELLOWSTONE NATIONAL PARK

CITY           SKY/WX    TMP DP  RH WIND       PRES   REMARKS
LK YELLOWSTONE   N/A     56  43  61 SE6       30.41S
W YELLOWSTONE  NOT AVBL

$$
WYZ002>013-054>058-071-098>099-251700-
NORTHERN WYOMING

CITY           SKY/WX    TMP DP  RH WIND       PRES   REMARKS
JACKSON        SUNNY     63  34  34 CALM      30.33F
CODY           FAIR      79  37  22 NW3       30.15F
GREYBULL       FAIR      75  37  25 CALM      30.08F
WORLAND        FAIR      77  35  21 CALM      30.09F
SHERIDAN       FAIR      81  47  30 CALM      30.07F
BUFFALO        FAIR      84  38  19 E5        30.14F
GILLETTE       FAIR      81  53  37 S13       30.11F
HULETT         FAIR      86  50  28 SW8       30.12S
NEWCASTLE      FAIR      77  48  36 S12G17    30.15S

$$
WYZ014>020-022>026-101>103-251700-
CENTRAL WYOMING

CITY           SKY/WX    TMP DP  RH WIND       PRES   REMARKS
BIG PINEY      FAIR      70  30  22 VRB5      30.35S
PINEDALE       FAIR      70  30  23 CALM      30.35S
DUBOIS         FAIR      73  27  17 NW8       30.31F HAZE
LANDER         FAIR      75  35  23 CALM      30.20F
RIVERTON         N/A    N/A N/A N/A MISG      30.20F
CASPER         FAIR      77  52  41 E6        30.18F
DOUGLAS          N/A    N/A N/A N/A MISG      30.17F

$$
WYZ021-027>030-104>119-251700-
SOUTHERN WYOMING

CITY           SKY/WX    TMP DP  RH WIND       PRES   REMARKS
EVANSTON       FAIR      73  29  19 VRB3      30.32F
KEMMERER         N/A     73  27  17 CALM      30.34F
FORT BRIDGER   SUNNY     73  25  16 CALM      30.36R
ROCK SPRINGS   FAIR      74  21  13 S3        30.32S
DIXON          FAIR      74  38  26 SE3       30.33S
RAWLINS        FAIR      76  31  19 VRB5      30.31S
SARATOGA       FAIR      77  37  24 SE10      30.33F
LARAMIE        FAIR      74  40  29 E6        30.33S
CHEYENNE       FAIR      73  58  59 S9        30.25S
TORRINGTON     FAIR      74  56  53 SE17      30.13F
PINE BLUFFS    FAIR      70  55  60 S10G17    30.22F

$$




USA.gov is the U.S. government's official web portal to all federal, state and local government web resources and services.